Wind_Speed
44 40 33 27 13 19 24 23 18 16 15 13 12 10 12 12 12 10 15 21 18 17 16 19 22 27 34 38 44 51 54 50 53 47 44 39 33 27 25 26 19 15 15
42 34 24 10 29 39 32 22 22 22 18 17 16 14 16 19 21 21 21 18 17 16 18 21 26 29 33 40 43 49 48 42 45 45 41 36 30 27 24 20 16 16 15
27 17 13 34 41 34 26 27 29 30 29 26 27 29 25 26 30 28 23 19 19 19 21 22 25 28 31 35 38 44 44 41 39 40 39 37 34 31 27 23 19 18 19
13 20 37 39 36 30 30 29 28 28 24 28 30 35 37 36 33 36 36 34 30 27 26 25 24 24 26 29 32 34 35 32 33 33 33 32 30 25 23 23 21 19 20
26 43 40 35 32 30 26 25 24 25 25 28 28 30 34 37 38 41 39 36 36 36 36 37 36 37 38 39 39 36 34 31 32 31 30 27 23 20 20 20 19 24 25
39 39 35 31 30 30 24 26 26 23 24 25 25 28 28 33 38 40 43 45 42 41 42 43 45 43 42 45 46 48 48 45 45 45 45 44 39 35 33 30 26 31 30
40 33 32 31 30 27 22 26 25 22 22 24 26 29 31 33 38 37 39 43 45 48 49 50 52 49 51 53 53 54 54 53 51 48 46 44 45 44 42 39 35 32 30
34 32 29 28 29 22 23 26 24 23 24 26 27 28 32 30 35 35 37 39 40 44 46 48 50 52 51 51 52 52 52 51 51 50 51 51 50 47 44 41 39 35 32
31 32 30 28 27 25 23 21 25 25 26 26 26 26 28 29 32 33 36 37 39 40 42 44 44 43 44 46 46 46 46 44 43 44 46 48 47 46 44 43 41 39 40
36 33 28 31 27 25 17 18 25 27 27 27 26 24 25 25 26 29 31 32 33 34 35 36 37 36 36 37 39 40 43 44 42 36 36 36 36 36 36 36 38 35 33
33 32 28 25 24 19 20 26 28 25 26 25 24 23 24 25 26 25 25 26 28 28 27 30 29 29 29 31 32 34 33 34 39 38 34 36 34 35 34 33 30 28 25
28 25 24 21 20 20 21 23 23 24 24 24 23 26 26 25 25 23 22 21 23 25 25 24 24 23 22 21 24 24 24 27 29 28 32 30 30 27 26 27 27 26 24
24 22 19 18 18 19 19 20 24 23 23 25 25 25 25 23 22 23 21 19 18 20 21 17 19 17 15 14 12 11 12 18 14 23 19 23 23 22 21 19 18 17 16
24 19 17 20 19 16 19 20 26 25 26 26 24 23 21 21 19 18 16 14 14 13 12 11 11 10 11 11 13 14 12 14 14 11 8 13 14 12 13 14 15 15 15
23 18 11 20 20 19 23 22 27 28 25 21 20 20 19 16 15 13 12 11 10 9 8 9 5 8 8 8 9 9 8 6 7 9 9 8 9 8 10 12 13 13 13
22 21 15 18 22 23 25 30 33 27 25 22 19 17 16 14 12 10 10 8 5 2 4 2 1 1 3 3 2 5 7 7 9 7 8 7 9 11 13 13 14 16 14
22 18 20 21 24 26 30 31 33 30 27 23 21 18 18 17 13 12 9 7 1 3 5 4 5 7 8 8 8 11 8 8 8 11 18 20 17 17 17 17 19 20 19
21 17 21 24 25 27 32 32 34 30 27 25 22 18 19 19 13 13 9 7 5 7 7 7 8 9 11 14 12 16 15 14 18 18 22 26 25 24 25 25 25 24 24
24 21 23 28 30 31 35 32 31 31 28 28 23 19 19 20 18 14 13 12 13 12 14 15 15 15 17 15 17 20 21 24 26 30 27 25 25 26 28 29 29 29 30
25 24 27 30 33 34 40 38 33 32 31 28 25 25 22 21 20 20 20 18 16 18 18 18 15 16 19 21 22 22 26 28 31 31 31 34 33 33 35 35 35 35 36
22 23 27 32 34 34 39 39 38 33 33 30 27 27 27 24 23 21 21 20 21 21 22 22 22 24 26 27 27 27 29 32 35 34 36 34 35 36 36 38 37 38 39
24 24 24 29 32 33 37 40 38 36 34 31 29 26 26 27 28 27 26 25 25 27 28 27 30 32 33 35 33 33 34 36 40 35 36 37 39 40 44 45 44 45 47
29 28 27 31 33 33 34 34 37 35 33 32 31 30 29 31 31 33 32 31 30 30 30 34 34 36 38 39 42 40 41 43 43 44 43 41 41 43 45 48 49 51 52
34 33 31 36 38 39 36 37 39 37 36 34 32 32 34 36 37 40 41 40 40 39 37 38 38 37 38 41 43 45 47 48 48 47 44 42 46 53 55 56 59 61 62
37 38 37 39 42 42 39 41 41 40 38 37 36 38 32 42 44 46 46 45 45 44 46 48 46 46 47 45 45 47 49 50 51 52 52 56 58 59 62 67 71 75 75
45 42 44 44 46 48 45 45 45 44 42 38 30 28 32 35 38 42 40 41 42 46 43 44 48 52 51 51 51 51 52 53 54 58 58 64 65 66 70 74 77 80 82
Wind_Direction
270 283 291 300 253 140 117 117 116 114 101 90 88 74 63 53 65 100 114 120 108 96 90 83 72 72 65 61 60 64 74 90 103 110 111 114 123 127 127 130 124 107 116
272 286 294 213 141 124 116 118 112 97 94 90 91 84 81 69 77 94 108 107 105 104 100 90 81 79 74 68 69 71 74 89 102 108 111 112 112 107 112 116 106 105 118
276 269 181 144 137 126 126 121 107 100 89 93 96 88 89 84 80 85 95 106 110 109 101 94 86 81 77 74 74 75 80 85 96 99 102 100 102 102 98 97 98 99 104
213 174 149 138 138 131 127 121 113 106 90 93 92 89 87 88 87 87 90 94 99 99 95 90 86 83 81 79 79 79 81 85 88 91 96 100 103 101 96 90 96 106 103
172 147 143 143 137 131 125 123 120 108 99 102 94 93 88 88 91 90 91 92 92 92 91 89 89 86 84 82 80 83 86 87 85 86 88 88 85 83 82 85 92 109 108
149 148 146 141 135 124 124 126 116 111 106 107 96 92 93 94 91 94 95 94 95 95 95 94 89 88 88 87 84 85 85 84 83 83 82 81 81 84 84 85 95 109 100
146 149 144 142 137 131 126 128 121 117 112 107 107 104 101 101 95 95 94 93 94 93 91 90 91 90 87 86 85 86 84 82 81 82 82 82 81 80 83 89 98 105 101
145 142 141 145 144 143 135 128 120 116 119 110 114 113 109 103 103 102 100 97 97 98 94 90 89 88 85 83 83 82 82 80 78 76 77 79 80 80 81 84 87 91 91
140 147 152 152 152 140 130 130 127 122 118 116 118 119 120 115 114 110 105 103 100 96 95 96 95 92 90 88 85 83 80 76 76 79 78 78 79 78 79 80 82 86 87
142 142 142 148 147 151 132 137 139 129 125 122 121 119 126 122 123 119 112 108 102 103 103 96 91 92 91 88 89 89 85 79 76 80 78 77 77 77 78 81 83 86 86
147 142 136 136 145 147 142 131 135 130 128 128 125 124 125 126 125 126 118 110 104 101 101 100 99 96 96 90 88 89 81 79 80 75 79 79 75 79 81 83 82 81 83
152 154 155 148 142 147 149 135 141 139 137 133 120 125 125 122 118 119 122 109 103 98 92 97 94 94 79 83 90 93 82 70 75 82 78 74 73 76 76 77 75 76 73
154 158 159 163 155 156 156 146 151 148 142 137 131 128 130 129 125 119 113 110 108 102 89 97 100 94 83 64 61 64 62 38 30 42 60 62 63 60 64 65 61 58 56
159 157 169 173 170 165 162 157 158 153 152 146 140 137 135 135 135 130 127 122 105 91 95 87 67 68 58 56 65 63 56 56 73 58 46 56 48 23 28 33 35 27 20
182 184 191 191 181 181 173 168 165 160 159 161 155 154 152 151 152 151 148 143 144 82 96 103 54 76 76 67 56 51 55 48 54 35 23 8 2 359 360 1 360 3 1
194 206 207 207 195 188 182 173 173 172 168 169 170 172 171 167 165 160 154 150 167 51 64 108 168 331 37 359 357 345 10 347 344 358 328 330 338 336 339 332 341 335 331
213 205 203 209 199 201 184 184 180 179 182 188 187 190 188 177 178 166 172 184 175 320 325 271 275 278 281 299 334 307 289 297 307 310 326 330 297 301 309 312 312 322 310
201 202 207 207 204 198 192 192 190 189 195 197 194 198 197 196 195 207 239 231 241 265 274 288 280 294 299 274 281 295 283 286 290 292 305 307 307 305 299 297 299 297 302
219 216 211 207 203 200 198 195 198 202 205 205 207 209 214 217 221 232 246 255 258 265 279 284 282 287 298 298 291 286 287 290 293 297 303 305 306 304 302 299 296 293 291
227 227 222 215 209 204 201 201 201 211 207 215 217 218 218 221 227 241 250 262 259 264 271 274 281 282 286 288 295 292 293 296 297 296 297 298 300 302 304 302 299 296 293
230 234 232 220 214 209 207 210 209 210 213 213 219 222 227 233 243 251 253 256 264 273 275 280 278 289 288 287 294 298 299 299 294 293 297 296 298 301 305 304 302 296 291
223 224 225 217 220 219 215 214 214 217 214 218 219 226 228 240 249 248 252 258 268 273 271 277 288 291 292 290 297 293 295 301 300 296 293 297 302 305 306 303 300 296 291
223 220 218 212 215 213 212 212 211 211 217 220 224 231 239 248 249 250 254 257 262 269 275 277 279 288 294 294 290 291 293 295 295 296 295 291 294 300 301 298 301 303 303
226 220 222 220 216 214 216 216 216 218 220 226 234 243 254 259 259 257 258 262 264 266 270 275 282 286 293 297 293 291 293 294 293 292 292 292 292 297 300 299 299 299 299
232 228 223 223 222 224 225 223 223 229 232 235 240 246 258 260 259 260 261 263 266 270 272 277 280 283 289 291 290 290 291 292 291 292 288 287 291 294 296 298 298 298 297
233 233 232 227 227 230 230 227 230 234 238 241 250 275 279 297 291 267 259 260 270 269 273 282 282 284 283 284 289 292 290 289 293 290 287 291 291 295 296 298 298 298 297
Height
10956 10953 10951 10947 10944 10943 10943 10945 10947 10947 10946 10944 10942 10940 10937 10933 10929 10927 10929 10931 10931 10932 10931 10929 10926 10923 10919 10911 10904 10891 10881 10882 10881 10886 10893 10901 10907 10911 10914 10917 10919 10920 10922
10953 10952 10949 10946 10946 10945 10948 10950 10953 10952 10951 10949 10947 10944 10941 10937 10933 10931 10932 10933 10935 10935 10934 10932 10930 10928 10924 10918 10913 10905 10902 10904 10901 10901 10904 10908 10914 10917 10920 10923 10924 10924 10926
10951 10951 10949 10949 10948 10950 10953 10956 10956 10956 10955 10953 10952 10949 10946 10942 10939 10937 10936 10937 10939 10939 10938 10937 10936 10933 10929 10925 10923 10917 10917 10920 10918 10914 10915 10917 10921 10924 10925 10926 10927 10928 10929
10949 10950 10952 10952 10953 10955 10958 10960 10960 10959 10960 10959 10958 10956 10953 10950 10947 10945 10944 10944 10944 10945 10944 10942 10940 10938 10935 10932 10930 10928 10928 10932 10929 10926 10924 10925 10927 10929 10928 10928 10930 10932 10934
10951 10953 10955 10957 10959 10960 10962 10964 10965 10965 10966 10966 10965 10963 10962 10960 10958 10956 10953 10952 10951 10950 10950 10948 10947 10944 10942 10939 10936 10935 10936 10939 10936 10934 10932 10931 10931 10932 10930 10930 10934 10937 10940
10954 10957 10960 10962 10964 10966 10967 10969 10970 10970 10970 10971 10971 10969 10969 10969 10967 10965 10963 10962 10960 10959 10957 10955 10955 10955 10951 10947 10945 10944 10944 10946 10944 10942 10940 10937 10937 10937 10937 10937 10939 10943 10946
10958 10962 10963 10966 10969 10971 10972 10974 10974 10974 10975 10976 10977 10975 10976 10976 10975 10974 10972 10971 10969 10969 10967 10964 10962 10966 10962 10958 10956 10954 10954 10955 10954 10953 10950 10947 10947 10948 10947 10948 10949 10952 10954
10962 10965 10968 10970 10972 10975 10976 10978 10978 10978 10979 10980 10981 10981 10983 10986 10982 10981 10980 10979 10978 10976 10975 10974 10974 10972 10972 10969 10967 10966 10966 10966 10965 10964 10961 10959 10959 10959 10958 10959 10960 10962 10963
10966 10968 10971 10972 10975 10978 10980 10982 10982 10982 10983 10984 10985 10986 10988 10989 10988 10988 10986 10986 10985 10985 10983 10982 10982 10982 10982 10980 10978 10977 10977 10977 10976 10975 10973 10971 10970 10971 10970 10970 10971 10971 10972
10968 10971 10973 10975 10977 10981 10983 10984 10986 10987 10988 10989 10990 10991 10992 10993 10994 10995 10993 10992 10992 10992 10990 10991 10991 10991 10991 10989 10987 10985 10984 10984 10984 10984 10982 10981 10980 10980 10980 10980 10980 10980 10980
10972 10974 10977 10979 10981 10984 10986 10988 10990 10991 10992 10993 10995 10996 10996 10997 10999 10999 10999 10998 10998 10998 10998 10997 10996 10997 10997 10996 10995 10995 10994 10993 10990 10991 10991 10989 10988 10987 10987 10986 10987 10987 10986
10975 10978 10980 10982 10985 10987 10989 10991 10992 10994 10996 10998 10999 11000 11002 11003 11004 11004 11004 11004 11004 11005 11004 11003 11003 11002 11003 11003 11001 11000 10999 10998 10998 10997 10996 10995 10994 10994 10994 10993 10992 10992 10992
10977 10981 10983 10985 10988 10990 10991 10993 10995 10997 11000 11001 11003 11004 11006 11007 11007 11007 11008 11008 11009 11009 11009 11008 11008 11008 11008 11008 11008 11006 11005 11004 11004 11003 11001 11000 10999 10999 10998 10997 10996 10996 10995
10979 10982 10984 10986 10989 10992 10994 10994 10997 11000 11002 11003 11005 11006 11008 11010 11010 11010 11010 11011 11012 11012 11012 11012 11011 11011 11010 11010 11010 11010 11009 11007 11007 11007 11006 11004 11003 11002 11001 11000 10998 10997 10996
10980 10982 10985 10987 10990 10993 10995 10996 10999 11002 11004 11005 11007 11009 11010 11011 11012 11013 11012 11013 11014 11014 11015 11015 11014 11013 11013 11013 11013 11012 11011 11011 11009 11008 11007 11006 11005 11003 11002 11000 10999 10998 10997
10980 10980 10983 10986 10989 10992 10995 10997 11000 11002 11005 11006 11008 11009 11011 11013 11013 11014 11014 11015 11015 11015 11015 11015 11016 11016 11015 11015 11014 11013 11013 11011 11010 11009 11007 11006 11005 11003 11002 11000 10998 10998 10996
10977 10979 10981 10984 10988 10991 10994 10996 10998 11001 11004 11006 11008 11010 11011 11012 11014 11015 11016 11016 11016 11017 11016 11016 11016 11016 11016 11015 11014 11013 11012 11010 11009 11007 11006 11004 11003 11001 11000 10998 10997 10995 10993
10974 10976 10979 10982 10985 10988 10990 10993 10996 10999 11002 11004 11007 11008 11011 11013 11013 11014 11015 11016 11016 11015 11015 11016 11016 11015 11015 11014 11013 11010 11009 11008 11007 11005 11003 11001 10999 10997 10995 10993 10991 10989 10988
10970 10973 10975 10978 10981 10984 10987 10990 10993 10996 10999 11003 11005 11006 11008 11010 11011 11011 11012 11013 11013 11013 11013 11013 11012 11012 11011 11010 11009 11007 11005 11004 11002 11000 10998 10996 10994 10991 10989 10987 10984 10982 10980
10967 10970 10972 10974 10978 10981 10984 10987 10990 10992 10996 10999 11002 11003 11004 11006 11007 11008 11009 11009 11009 11009 11008 11008 11008 11007 11005 11004 11003 11002 11000 10998 10995 10994 10992 10989 10987 10984 10982 10979 10976 10974 10971
10965 10967 10970 10972 10975 10978 10981 10984 10987 10989 10992 10995 10997 11000 11001 11002 11003 11003 11003 11004 11003 11004 11003 11003 11003 11003 11001 10999 10997 10996 10994 10992 10988 10987 10983 10982 10979 10975 10973 10970 10967 10964 10961
10960 10963 10965 10969 10972 10975 10977 10980 10983 10986 10989 10991 10993 10995 10997 10998 10997 10997 10997 10998 10998 10998 10998 10997 10997 10995 10994 10992 10990 10989 10987 10985 10980 10979 10976 10973 10968 10966 10962 10959 10956 10953 10950
10956 10958 10960 10963 10967 10969 10972 10976 10979 10981 10984 10986 10989 10991 10992 10992 10991 10991 10991 10991 10991 10990 10990 10989 10988 10987 10985 10984 10980 10978 10976 10973 10970 10967 10964 10962 10960 10956 10951 10948 10945 10942 10938
10949 10952 10955 10959 10961 10963 10968 10970 10973 10976 10979 10982 10984 10985 10986 10985 10985 10984 10983 10983 10982 10982 10981 10980 10979 10977 10975 10972 10970 10967 10963 10961 10958 10955 10952 10949 10946 10943 10939 10936 10932 10926 10922
10944 10947 10949 10952 10955 10958 10962 10964 10968 10970 10972 10973 10974 10974 10974 10971 10972 10973 10973 10972 10973 10972 10971 10970 10969 10966 10964 10961 10958 10955 10952 10949 10946 10942 10938 10935 10932 10928 10925 10920 10914 10909 10905
10934 10937 10940 10943 10946 10949 10953 10956 10959 10961 10962 10964 10965 10965 10966 10964 10963 10962 10961 10961 10960 10960 10959 10958 10956 10953 10951 10948 10946 10943 10940 10935 10932 10928 10924 10920 10915 10911 10908 10902 10896 10891 10885